When you browse on this site, cookies collect data to enhance your experience and personalize the content and advertising you see.
Visit our Privacy Policy to learn more. By continuing to use the site, you agree to this use of cookies and data.
  • Em Portugal
  • Lista de países
  • Para 7 dias
  • Temperatura da água
  • Mapas de satélite
  • Mapa do tempo
  • Widgets de tempo
  • user-avatar
    Iniciar Sessão

    Previsão horária em Porto Alegre

    Hoje, 20 Junho, Quinta-feira

    Tempo Temperatura Precipitação Vento Pressão Humidade
    00:00 +14°C° 0 mm 4 m/s 763 mmHg 67%
    01:00 +14°C° 0 mm 4 m/s 763 mmHg 69%
    02:00 +13°C° 0 mm 3 m/s 763 mmHg 71%
    03:00 +13°C° 0 mm 3 m/s 763 mmHg 74%
    04:00 +12°C° 0 mm 3 m/s 764 mmHg 76%
    05:00 +12°C° 0 mm 3 m/s 764 mmHg 78%
    06:00 +12°C° 0 mm 3 m/s 764 mmHg 80%
    07:00 +12°C° 0 mm 3 m/s 764 mmHg 78%
    08:00 +12°C° 0 mm 3 m/s 765 mmHg 76%
    09:00 +13°C° 0 mm 3 m/s 765 mmHg 75%
    10:00 +15°C° 0 mm 2 m/s 765 mmHg 69%
    11:00 +17°C° 0 mm 2 m/s 765 mmHg 63%
    12:00 +18°C° 0 mm 2 m/s 765 mmHg 58%
    13:00 +19°C° 0 mm 2 m/s 765 mmHg 56%
    14:00 +19°C° 0 mm 2 m/s 765 mmHg 55%
    15:00 +20°C° 0 mm 2 m/s 765 mmHg 54%
    16:00 +20°C° 0 mm 1 m/s 765 mmHg 59%
    17:00 +19°C° 0 mm 1 m/s 765 mmHg 64%
    18:00 +18°C° 0 mm 1 m/s 765 mmHg 69%
    19:00 +16°C° 0 mm 1 m/s 765 mmHg 72%
    20:00 +16°C° 0 mm 1 m/s 766 mmHg 75%
    21:00 +15°C° 0 mm 1 m/s 766 mmHg 78%
    22:00 +15°C° 0 mm 1 m/s 766 mmHg 78%
    23:00 +14°C° 0 mm 1 m/s 766 mmHg 79%

    Amanhã, 21 Junho, Sexta-feira

    Tempo Temperatura Precipitação Vento Pressão Humidade
    00:00 +14°C° 0 mm 1 m/s 766 mmHg 79%
    01:00 +14°C° 0 mm 1 m/s 766 mmHg 81%
    02:00 +14°C° 0 mm 1 m/s 766 mmHg 82%
    03:00 +14°C° 0 mm 1 m/s 765 mmHg 83%
    04:00 +13°C° 0 mm 1 m/s 765 mmHg 84%
    05:00 +13°C° 0 mm 1 m/s 765 mmHg 84%
    06:00 +13°C° 0 mm 1 m/s 765 mmHg 85%
    07:00 +14°C° 0 mm 1 m/s 765 mmHg 81%
    08:00 +13°C° 0 mm 0 m/s 766 mmHg 77%
    09:00 +14°C° 0 mm 0 m/s 766 mmHg 73%
    10:00 +18°C° 0 mm 1 m/s 766 mmHg 65%
    11:00 +20°C° 0 mm 1 m/s 765 mmHg 57%
    12:00 +22°C° 0 mm 1 m/s 765 mmHg 49%
    13:00 +21°C° 0 mm 0 m/s 765 mmHg 48%
    14:00 +22°C° 0 mm 0 m/s 764 mmHg 47%
    15:00 +22°C° 0 mm 0 m/s 764 mmHg 45%
    16:00 +21°C° 0 mm 0 m/s 764 mmHg 51%
    17:00 +22°C° 0 mm 1 m/s 764 mmHg 58%
    18:00 +20°C° 0 mm 1 m/s 764 mmHg 64%
    19:00 +20°C° 0 mm 1 m/s 765 mmHg 67%
    20:00 +19°C° 0 mm 1 m/s 765 mmHg 71%
    21:00 +19°C° 0 mm 1 m/s 765 mmHg 75%
    22:00 +19°C° 0 mm 1 m/s 765 mmHg 77%
    23:00 +16°C° 0 mm 0 m/s 765 mmHg 78%

    Depois de amanhã, 22 Junho, Sábado

    Tempo Temperatura Precipitação Vento Pressão Humidade
    00:00 +16°C° 0 mm 0 m/s 765 mmHg 80%
    01:00 +18°C° 0 mm 1 m/s 765 mmHg 81%
    02:00 +18°C° 0 mm 1 m/s 765 mmHg 82%
    03:00 +18°C° 0 mm 1 m/s 765 mmHg 83%
    04:00 +18°C° 0 mm 1 m/s 765 mmHg 83%
    05:00 +18°C° 0 mm 1 m/s 765 mmHg 84%
    06:00 +17°C° 0 mm 2 m/s 765 mmHg 84%
    07:00 +17°C° 0 mm 2 m/s 765 mmHg 81%
    08:00 +18°C° 0 mm 2 m/s 765 mmHg 78%
    09:00 +19°C° 0 mm 2 m/s 765 mmHg 75%
    10:00 +21°C° 0 mm 2 m/s 765 mmHg 70%
    11:00 +24°C° 0 mm 2 m/s 765 mmHg 66%
    12:00 +26°C° 0 mm 2 m/s 764 mmHg 61%
    13:00 +26°C° 0 mm 2 m/s 764 mmHg 60%
    14:00 +27°C° 0 mm 2 m/s 763 mmHg 59%
    15:00 +28°C° 0 mm 2 m/s 762 mmHg 58%
    16:00 +26°C° 0 mm 2 m/s 763 mmHg 65%
    17:00 +25°C° 0 mm 1 m/s 763 mmHg 71%
    18:00 +24°C° 0 mm 1 m/s 763 mmHg 78%
    19:00 +23°C° 0 mm 1 m/s 763 mmHg 80%
    20:00 +23°C° 0 mm 1 m/s 763 mmHg 81%
    21:00 +22°C° 0 mm 1 m/s 763 mmHg 83%
    22:00 +22°C° 0 mm 1 m/s 763 mmHg 83%
    23:00 +21°C° 0 mm 1 m/s 763 mmHg 84%

    23 Junho, Domingo

    Tempo Temperatura Precipitação Vento Pressão Humidade
    00:00 +21°C° 0 mm 1 m/s 763 mmHg 85%
    01:00 +21°C° 0 mm 1 m/s 763 mmHg 85%
    02:00 +20°C° 0 mm 1 m/s 762 mmHg 85%
    03:00 +20°C° 0 mm 1 m/s 762 mmHg 86%
    04:00 +20°C° 0 mm 1 m/s 762 mmHg 85%
    05:00 +19°C° 0 mm 2 m/s 762 mmHg 85%
    06:00 +18°C° 0 mm 2 m/s 761 mmHg 84%
    07:00 +19°C° 0 mm 2 m/s 761 mmHg 81%
    08:00 +20°C° 0 mm 2 m/s 762 mmHg 78%
    09:00 +20°C° 0 mm 2 m/s 762 mmHg 74%
    10:00 +22°C° 0 mm 3 m/s 761 mmHg 68%
    11:00 +25°C° 0 mm 3 m/s 761 mmHg 62%
    12:00 +26°C° 0 mm 4 m/s 761 mmHg 56%
    13:00 +27°C° 0 mm 4 m/s 760 mmHg 56%
    14:00 +27°C° 0 mm 4 m/s 759 mmHg 56%
    15:00 +27°C° 0 mm 3 m/s 758 mmHg 56%
    16:00 +26°C° 0 mm 3 m/s 758 mmHg 60%
    17:00 +25°C° 0 mm 2 m/s 758 mmHg 65%
    18:00 +24°C° 0 mm 2 m/s 758 mmHg 70%
    19:00 +23°C° 0 mm 2 m/s 758 mmHg 71%
    20:00 +23°C° 0 mm 2 m/s 758 mmHg 73%
    21:00 +21°C° 0 mm 3 m/s 758 mmHg 74%
    22:00 +21°C° 0 mm 3 m/s 758 mmHg 75%
    23:00 +21°C° 0 mm 3 m/s 758 mmHg 76%

    24 Junho, Segunda-feira

    Tempo Temperatura Precipitação Vento Pressão Humidade
    00:00 +21°C° 0 mm 3 m/s 758 mmHg 77%
    01:00 +20°C° 0 mm 3 m/s 758 mmHg 77%
    02:00 +20°C° 0 mm 3 m/s 757 mmHg 78%
    03:00 +20°C° 0 mm 3 m/s 757 mmHg 78%
    04:00 +20°C° 0 mm 3 m/s 757 mmHg 79%
    05:00 +20°C° 0 mm 3 m/s 757 mmHg 79%
    06:00 +19°C° 0 mm 3 m/s 757 mmHg 80%
    07:00 +20°C° 0 mm 3 m/s 757 mmHg 78%
    08:00 +20°C° 0 mm 3 m/s 757 mmHg 76%
    09:00 +21°C° 0 mm 3 m/s 758 mmHg 74%
    10:00 +22°C° 0 mm 3 m/s 757 mmHg 68%
    11:00 +25°C° 0 mm 3 m/s 757 mmHg 62%
    12:00 +26°C° 0 mm 3 m/s 757 mmHg 56%
    13:00 +27°C° 0 mm 3 m/s 756 mmHg 54%
    14:00 +28°C° 0 mm 2 m/s 755 mmHg 52%
    15:00 +28°C° 0 mm 2 m/s 755 mmHg 50%
    16:00 +27°C° 0 mm 2 m/s 755 mmHg 54%
    17:00 +26°C° 0 mm 2 m/s 755 mmHg 58%
    18:00 +25°C° 0 mm 2 m/s 755 mmHg 63%
    19:00 +24°C° 0 mm 2 m/s 755 mmHg 65%
    20:00 +23°C° 0 mm 2 m/s 755 mmHg 68%
    21:00 +23°C° 0 mm 2 m/s 754 mmHg 70%
    22:00 +21°C° 0 mm 2 m/s 754 mmHg 71%
    23:00 +21°C° 0 mm 2 m/s 754 mmHg 72%

    25 Junho, Terça-feira

    Tempo Temperatura Precipitação Vento Pressão Humidade
    00:00 +21°C° 0 mm 2 m/s 754 mmHg 73%
    01:00 +21°C° 0 mm 2 m/s 754 mmHg 71%
    02:00 +21°C° 0 mm 2 m/s 754 mmHg 70%
    03:00 +21°C° 0 mm 3 m/s 754 mmHg 69%
    04:00 +21°C° 0 mm 2 m/s 753 mmHg 69%
    05:00 +21°C° 0 mm 2 m/s 753 mmHg 69%
    06:00 +20°C° 0 mm 2 m/s 753 mmHg 69%
    07:00 +21°C° 0 mm 3 m/s 753 mmHg 69%
    08:00 +21°C° 0 mm 3 m/s 754 mmHg 69%
    09:00 +22°C° 0 mm 4 m/s 755 mmHg 68%
    10:00 +20°C° 0.4 mm 4 m/s 755 mmHg 74%
    11:00 +19°C° 0.4 mm 4 m/s 755 mmHg 79%
    12:00 +18°C° 0.4 mm 4 m/s 756 mmHg 84%
    13:00 +17°C° 0.9 mm 4 m/s 756 mmHg 84%
    14:00 +15°C° 0.9 mm 4 m/s 756 mmHg 85%
    15:00 +14°C° 0.9 mm 4 m/s 756 mmHg 85%
    16:00 +14°C° 1.5 mm 4 m/s 756 mmHg 86%
    17:00 +14°C° 1.5 mm 4 m/s 757 mmHg 87%
    18:00 +13°C° 1.5 mm 4 m/s 757 mmHg 88%
    19:00 +12°C° 1.5 mm 4 m/s 757 mmHg 87%
    20:00 +12°C° 1.5 mm 4 m/s 757 mmHg 86%
    21:00 +11°C° 1.5 mm 4 m/s 758 mmHg 85%
    22:00 +11°C° 0.8 mm 4 m/s 757 mmHg 85%
    23:00 +10°C° 0.8 mm 4 m/s 757 mmHg 84%
    Mostrar mais